Weather History for Ely, NV

Change the Weather History Date:

Thursday, August 22, 2013

  Actual Average Record
Temperature  
Mean Temperature 68 °F 65 °F  
Max Temperature 86 °F 84 °F 92 °F (2007)
Min Temperature 50 °F 46 °F 32 °F (1959)
Degree Days  
Heating Degree Days 0 2  
Month to date heating degree days 3 19  
Since 1 June heating degree days 103 217  
Since 1 July heating degree days 8 42  
Cooling Degree Days 3 2  
Month to date cooling degree days 73 65  
Year to date cooling degree days 341 200  
Since 1 June cooling degree days 341 199  
Growing Degree Days 18 (Base 50)    
Moisture  
Dew Point 46 °F    
Average Humidity 61    
Maximum Humidity 96    
Minimum Humidity 25    
Precipitation  
Precipitation 0.04 in 0.02 in 0.56 in (2014)
Month to date precipitation 0.37 0.66  
Year to date precipitation 3.73 6.40  
Snow  
Snow 0.00 in 0.00 in 0.00 in (1893)
Month to date snowfall 0.0 0.0  
Since 1 June snowfall 0.0 0.1  
Since 1 July snowfall 0.0 0.0  
Snow Depth 0.00 in    
Sea Level Pressure  
Sea Level Pressure 29.97 in    
Wind  
Wind Speed 10 mph (South)    
Max Wind Speed 32 mph    
Max Gust Speed 41 mph    
Visibility 10 miles    
Events Rain , Thunderstorm    
T = Trace of Precipitation, MM = Missing Value Source: NWS Daily Summary

Daily Weather History Graph

Daily Weather History Graph

Search for Another Location

Airport:

Trip Planner

Search our weather history database for the weather conditions in past years. The results will help you decide how hot, cold, wet, or windy it might be!

Date:

Astronomy

Aug. 22, 2013 Rise Set
Actual Time 5:59 AM PDT 7:24 PM PDT
Civil Twilight 5:30 AM PDT 7:52 PM PDT
Nautical Twilight 4:57 AM PDT 8:26 PM PDT
Astronomical Twilight 4:21 AM PDT 9:01 PM PDT
Moon 8:12 PM PDT (8/22) 7:51 AM PDT (8/22)
Length of Visible Light 14h 21m
Length of Day
13h 25m
Waning Gibbous, 96% of the Moon is Illuminated
Aug 22
Waning Gibbous
Aug 28
Last Quarter
Sep 5
New
Sep 12
First Quarter
Sep 19
Full

Hourly Weather History & Observations

Time (PDT) Temp. Dew Point Humidity Pressure Visibility Wind Dir Wind Speed Gust Speed Precip Events Conditions
12:53 AM 60.1 °F 53.1 °F 78% 29.98 in 10.0 mi SSW 8.1 mph - 0.01 in   Mostly Cloudy
1:53 AM 57.0 °F 54.0 °F 89% 29.98 in 10.0 mi South 4.6 mph - N/A   Partly Cloudy
2:53 AM 53.1 °F 51.1 °F 93% 29.98 in 10.0 mi SSW 3.5 mph - N/A   Clear
3:53 AM 54.0 °F 51.1 °F 90% 29.98 in 10.0 mi Calm Calm - N/A   Clear
4:53 AM 51.1 °F 48.9 °F 92% 29.99 in 10.0 mi SSE 3.5 mph - N/A   Clear
5:53 AM 51.1 °F 48.9 °F 92% 30.02 in 10.0 mi SW 4.6 mph - N/A   Clear
6:53 AM 51.1 °F 50.0 °F 96% 30.04 in 10.0 mi SSE 6.9 mph - N/A   Clear
7:53 AM 57.0 °F 52.0 °F 83% 30.06 in 10.0 mi Calm Calm - N/A   Clear
8:53 AM 62.1 °F 54.0 °F 75% 30.03 in 10.0 mi Calm Calm - N/A   Clear
9:53 AM 73.9 °F 51.1 °F 45% 29.97 in 10.0 mi South 11.5 mph - N/A   Clear
10:53 AM 75.9 °F 48.0 °F 37% 29.96 in 10.0 mi South 10.4 mph - N/A   Clear
11:53 AM 79.0 °F 42.1 °F 27% 29.94 in 10.0 mi SE 4.6 mph - N/A   Scattered Clouds
12:53 PM 82.9 °F 45.0 °F 26% 29.90 in 10.0 mi SSE 15.0 mph 24.2 mph N/A   Scattered Clouds
1:53 PM 81.0 °F 41.0 °F 24% 29.89 in 10.0 mi South 9.2 mph 16.1 mph N/A Thunderstorm Scattered Clouds
2:10 PM 86.0 °F 41.0 °F 20% 30.19 in 10.0 mi South 15.0 mph 24.2 mph N/A   Scattered Clouds
2:26 PM 82.4 °F 41.0 °F 23% 30.18 in 10.0 mi SE 19.6 mph 25.3 mph N/A   Scattered Clouds
2:53 PM 82.0 °F 39.9 °F 22% 29.88 in 10.0 mi South 17.3 mph 23.0 mph N/A   Mostly Cloudy
3:53 PM 82.0 °F 41.0 °F 23% 29.85 in 10.0 mi SSE 11.5 mph 20.7 mph 0.00 in   Scattered Clouds
4:53 PM 79.0 °F 39.9 °F 25% 29.87 in 10.0 mi SSW 19.6 mph 24.2 mph N/A   Scattered Clouds
5:04 PM 78.8 °F 35.6 °F 21% 30.14 in 10.0 mi WSW 21.9 mph 32.2 mph N/A Thunderstorm Partly Cloudy
5:41 PM 73.4 °F 42.8 °F 33% 30.16 in 10.0 mi SSW 18.4 mph 41.4 mph 0.00 in Rain Light Rain
5:53 PM 75.0 °F 39.0 °F 27% 29.88 in 10.0 mi WSW 13.8 mph 33.4 mph 0.00 in Rain Light Rain
6:53 PM 72.0 °F 43.0 °F 35% 29.92 in 10.0 mi SSE 21.9 mph 29.9 mph 0.00 in   Overcast
7:53 PM 70.0 °F 44.1 °F 39% 29.88 in 10.0 mi ESE 20.7 mph 27.6 mph 0.00 in   Partly Cloudy
8:25 PM 68.0 °F 44.6 °F 43% 30.16 in 10.0 mi SSW 18.4 mph - 0.00 in   Partly Cloudy
8:53 PM 66.9 °F 46.9 °F 49% 29.93 in 10.0 mi South 18.4 mph 25.3 mph 0.00 in   Partly Cloudy
9:53 PM 64.0 °F 51.1 °F 63% 29.89 in 10.0 mi Variable 4.6 mph - 0.04 in   Scattered Clouds
10:53 PM 63.0 °F 48.0 °F 58% 29.87 in 10.0 mi South 12.7 mph - N/A   Scattered Clouds
11:53 PM 61.0 °F 48.9 °F 64% 29.87 in 10.0 mi SSW 16.1 mph - N/A   Clear